This is the latest recevied weather packets stored in our database for station/object K0APR. If no packets are shown the sender has not sent any weather packets the latest 1 day(s).
| Time | Temp. | Humidity | Pressure | Rain* | Wind** | Luminosity | Snow |
|---|---|---|---|---|---|---|---|
| 1778031177 | 6.67° C | 50% | 1013.3 hPa | 0 mm | - | 1 W/m² | - |
| 1778030874 | 6.67° C | 50% | 1013.3 hPa | 0 mm | - | 3 W/m² | - |
| 1778030571 | 6.67° C | 49% | 1013.3 hPa | 0 mm | - | 4 W/m² | - |
| 1778030268 | 7.22° C | 49% | 1013.3 hPa | 0 mm | - | 6 W/m² | - |
| 1778029964 | 7.22° C | 48% | 1013.3 hPa | 0 mm | - | 10 W/m² | - |
| 1778029663 | 7.22° C | 48% | 1013.3 hPa | 0 mm | - | 15 W/m² | - |
| 1778029057 | 7.78° C | 46% | 1013.3 hPa | 0 mm | - | 23 W/m² | - |
| 1778028753 | 7.78° C | 45% | 1013 hPa | 0 mm | - | 24 W/m² | - |
| 1778028449 | 7.78° C | 45% | 1013 hPa | 0 mm | - | 26 W/m² | - |
| 1778028147 | 7.78° C | 45% | 1012.7 hPa | 0 mm | - | 35 W/m² | - |
| 1778027843 | 7.78° C | 45% | 1013 hPa | 0 mm | - | 39 W/m² | - |
| 1778027540 | 8.33° C | 44% | 1012.7 hPa | 0 mm | - | 44 W/m² | - |
| 1778026932 | 7.78° C | 44% | 1012.7 hPa | 0 mm | - | 46 W/m² | - |
| 1778026628 | 8.33° C | 43% | 1012.7 hPa | 0 mm | - | 49 W/m² | - |
| 1778025720 | 8.33° C | 42% | 1012.7 hPa | 0 mm | - | 72 W/m² | - |
| 1778025115 | 8.33° C | 42% | 1012.7 hPa | 0 mm | - | 67 W/m² | - |
| 1778023903 | 8.33° C | 42% | 1012.7 hPa | 0 mm | - | 94 W/m² | - |
| 1778020571 | 8.89° C | 41% | 1012 hPa | 0 mm | - | 136 W/m² | - |
| 1778017844 | 9.44° C | 39% | 1012 hPa | 0 mm | - | 186 W/m² | - |
| 1778017542 | 9.44° C | 40% | 1012 hPa | 0 mm | - | 182 W/m² | - |
| 1778016329 | 8.89° C | 38% | 1012 hPa | 0 mm | - | 239 W/m² | - |
| 1778014512 | 8.89° C | 41% | 1012.3 hPa | 0 mm | - | 237 W/m² | - |
* Rain latest hour (hover to see other rain measurements)
** Current wind speed in m/s (hover to see current wind gust speed)